�������l�o���
Date,Time,MP-1(��Sv/h),MP-2(��Sv/h),MP-3(��Sv/h),MP-4(��Sv/h),MP-5(��Sv/h),MP-6(��Sv/h),MP-7(��Sv/h),MP-8(��Sv/h),����,����(m/s),���J
2018/11/15,00:00,0.774,1.180,0.821,1.461,1.059,0.455,0.801,0.759,�k��,6.4,��
2018/11/15,00:10,0.775,1.177,0.821,1.462,1.061,0.456,0.800,0.758,�k��,7.0,��
2018/11/15,00:20,0.776,1.180,0.819,1.461,1.057,0.454,0.802,0.758,�k��,7.1,��
2018/11/15,00:30,0.778,1.177,0.820,1.459,1.063,0.455,0.801,0.759,�k��,7.0,��
2018/11/15,00:40,0.774,1.178,0.820,1.457,1.057,0.455,0.803,0.758,�k��,7.1,��
2018/11/15,00:50,0.776,1.178,0.820,1.461,1.059,0.455,0.802,0.758,�k��,7.0,��
2018/11/15,01:00,0.776,1.176,0.819,1.460,1.059,0.455,0.802,0.757,�k��,6.7,��
2018/11/15,01:10,0.773,1.178,0.820,1.457,1.057,0.455,0.802,0.757,�k��,6.2,��
2018/11/15,01:20,0.776,1.176,0.821,1.463,1.061,0.455,0.801,0.758,�k�k��,6.3,��
2018/11/15,01:30,0.773,1.176,0.821,1.459,1.059,0.454,0.800,0.759,�k�k��,5.7,��
2018/11/15,01:40,0.774,1.178,0.821,1.459,1.059,0.453,0.801,0.758,�k��,4.9,��
2018/11/15,01:50,0.776,1.178,0.819,1.461,1.057,0.454,0.803,0.757,�k��,5.2,��
2018/11/15,02:00,0.775,1.176,0.822,1.462,1.058,0.453,0.801,0.758,�k��,5.5,��
2018/11/15,02:10,0.772,1.176,0.820,1.459,1.059,0.454,0.801,0.758,�k��,6.2,��
2018/11/15,02:20,0.774,1.177,0.819,1.460,1.057,0.454,0.802,0.759,�k��,5.8,��
2018/11/15,02:30,0.776,1.176,0.821,1.461,1.060,0.453,0.801,0.758,�k��,6.1,��
2018/11/15,02:40,0.773,1.178,0.820,1.463,1.057,0.456,0.802,0.758,�k��,5.9,��
2018/11/15,02:50,0.774,1.178,0.823,1.460,1.057,0.455,0.802,0.758,�k��,5.7,��
2018/11/15,03:00,0.774,1.178,0.819,1.462,1.059,0.454,0.801,0.758,�k��,5.4,��
2018/11/15,03:10,0.774,1.177,0.819,1.459,1.057,0.454,0.801,0.757,�k�k��,5.8,��
2018/11/15,03:20,0.772,1.175,0.819,1.462,1.058,0.454,0.801,0.756,�k�k��,5.3,��
2018/11/15,03:30,0.772,1.176,0.818,1.463,1.056,0.454,0.799,0.757,�k�k��,5.3,��
2018/11/15,03:40,0.773,1.177,0.818,1.460,1.061,0.454,0.800,0.758,�k�k��,3.9,��
2018/11/15,03:50,0.774,1.176,0.819,1.458,1.056,0.454,0.801,0.758,�k��,4.2,��
2018/11/15,04:00,0.774,1.176,0.818,1.459,1.058,0.453,0.801,0.757,�k��,4.8,��
2018/11/15,04:10,0.770,1.177,0.818,1.461,1.057,0.454,0.801,0.757,�k��,4.9,��
2018/11/15,04:20,0.772,1.177,0.820,1.461,1.057,0.455,0.800,0.757,�k��,5.3,��
2018/11/15,04:30,0.772,1.174,0.821,1.459,1.057,0.456,0.800,0.758,�k��,5.5,��
2018/11/15,04:40,0.773,1.177,0.818,1.461,1.056,0.453,0.802,0.756,�k��,6.0,��
2018/11/15,04:50,0.771,1.177,0.820,1.458,1.056,0.455,0.800,0.757,�k��,5.6,��
2018/11/15,05:00,0.774,1.174,0.820,1.458,1.057,0.455,0.799,0.756,�k��,5.7,��
2018/11/15,05:10,0.773,1.175,0.819,1.459,1.055,0.454,0.800,0.757,�k��,5.8,��
2018/11/15,05:20,0.774,1.175,0.821,1.460,1.058,0.452,0.801,0.756,�k��,5.8,��
2018/11/15,05:30,0.773,1.177,0.820,1.457,1.060,0.455,0.800,0.759,�k��,6.2,��
2018/11/15,05:40,0.773,1.176,0.819,1.458,1.057,0.454,0.799,0.756,�k��,7.5,��
2018/11/15,05:50,0.772,1.177,0.820,1.458,1.059,0.454,0.800,0.756,�k�k��,6.2,��
2018/11/15,06:00,0.772,1.178,0.818,1.458,1.054,0.453,0.799,0.758,�k��,5.9,��
2018/11/15,06:10,0.772,1.175,0.818,1.461,1.056,0.454,0.799,0.757,�k�k��,6.1,��
2018/11/15,06:20,0.773,1.178,0.819,1.461,1.057,0.453,0.800,0.757,�k�k��,5.7,��
2018/11/15,06:30,0.774,1.175,0.820,1.462,1.055,0.454,0.799,0.756,�k�k��,5.7,��
2018/11/15,06:40,0.775,1.175,0.820,1.461,1.056,0.454,0.800,0.758,�k�k��,5.5,��
2018/11/15,06:50,0.770,1.174,0.818,1.460,1.058,0.455,0.800,0.756,�k�k��,6.2,��
2018/11/15,07:00,0.774,1.174,0.819,1.457,1.058,0.453,0.800,0.756,�k�k��,5.5,��
2018/11/15,07:10,0.774,1.175,0.818,1.461,1.056,0.451,0.801,0.756,�k�k��,5.0,��
2018/11/15,07:20,0.773,1.176,0.820,1.460,1.056,0.453,0.799,0.758,�k��,5.2,��
2018/11/15,07:30,0.772,1.178,0.819,1.462,1.058,0.454,0.800,0.757,�k��,4.7,��
2018/11/15,07:40,0.772,1.176,0.818,1.463,1.057,0.453,0.800,0.758,�k�k��,4.8,��
2018/11/15,07:50,0.774,1.177,0.818,1.461,1.057,0.454,0.800,0.756,�k�k��,4.3,��
2018/11/15,08:00,0.773,1.176,0.817,1.463,1.057,0.456,0.802,0.757,�k�k��,5.0,��
2018/11/15,08:10,0.774,1.176,0.820,1.461,1.057,0.453,0.801,0.758,�k�k��,4.6,��
2018/11/15,08:20,0.775,1.178,0.821,1.459,1.058,0.455,0.801,0.757,�k��,4.7,��
2018/11/15,08:30,0.774,1.180,0.818,1.462,1.059,0.455,0.802,0.758,�k��,3.9,��
2018/11/15,08:40,0.775,1.174,0.821,1.462,1.059,0.454,0.801,0.756,�k�k��,3.0,��
2018/11/15,08:50,0.776,1.174,0.821,1.465,1.060,0.456,0.802,0.758,�k,2.9,��
2018/11/15,09:00,0.774,1.173,0.819,1.464,1.059,0.455,0.799,0.758,�k,3.4,��
2018/11/15,09:10,0.775,1.173,0.822,1.465,1.060,0.455,0.799,0.756,�k�k��,3.6,��
2018/11/15,09:20,0.776,1.175,0.820,1.460,1.059,0.455,0.801,0.758,�k,4.2,��
2018/11/15,09:30,0.776,1.172,0.819,1.463,1.059,0.457,0.801,0.758,�k�k��,4.3,��
2018/11/15,09:40,0.773,1.178,0.821,1.461,1.057,0.455,0.798,0.759,�k,3.2,��
2018/11/15,09:50,0.775,1.170,0.820,1.462,1.059,0.457,0.800,0.757,�k,4.9,��
2018/11/15,10:00,0.776,1.171,0.820,1.460,1.060,0.455,0.799,0.758,�k�k��,4.8,��
2018/11/15,10:10,0.777,1.174,0.820,1.465,1.059,0.456,0.800,0.759,�k�k��,5.9,��
2018/11/15,10:20,0.778,1.172,0.820,1.464,1.060,0.456,0.800,0.758,�k�k��,5.7,��
2018/11/15,10:30,0.777,1.173,0.821,1.462,1.059,0.455,0.802,0.758,�k�k��,5.3,��
2018/11/15,10:40,0.775,1.171,0.822,1.465,1.061,0.453,0.800,0.758,�k�k��,5.4,��
2018/11/15,10:50,0.775,1.172,0.819,1.465,1.061,-,0.801,0.759,�k�k��,5.3,��
2018/11/15,11:00,0.777,1.174,0.823,1.465,1.058,-,0.800,0.758,�k�k��,6.6,��
2018/11/15,11:10,0.777,1.175,0.821,1.461,1.060,-,0.800,0.759,�k�k��,6.9,��
2018/11/15,11:20,0.777,1.177,0.820,1.463,1.061,-,0.801,0.759,�k�k��,7.1,��
2018/11/15,11:30,0.777,1.175,0.820,1.462,1.060,-,0.800,0.759,�k�k��,7.4,��
2018/11/15,11:40,0.775,1.175,0.822,1.465,1.060,-,0.801,0.759,�k�k��,7.5,��
2018/11/15,11:50,0.776,1.177,0.822,1.464,1.061,-,0.800,0.757,�k�k��,7.9,��
2018/11/15,12:00,0.777,1.176,0.820,1.461,1.062,-,0.802,0.760,�k�k��,8.8,��
2018/11/15,12:10,0.776,1.176,0.821,1.464,1.062,-,0.802,0.758,�k�k��,8.7,��
2018/11/15,12:20,0.778,1.173,0.822,1.465,1.061,-,0.800,0.759,�k�k��,8.5,��
2018/11/15,12:30,0.776,1.175,0.822,1.468,1.062,-,0.800,0.759,�k�k��,8.2,��
2018/11/15,12:40,0.778,1.176,0.821,1.464,1.062,-,0.801,0.756,�k�k��,9.6,��
2018/11/15,12:50,0.778,1.174,0.822,1.463,1.062,-,0.802,0.756,�k�k��,8.6,��
2018/11/15,13:00,0.777,1.174,0.820,1.466,1.062,-,0.801,0.755,�k�k��,7.6,��
2018/11/15,13:10,0.778,1.174,0.822,1.462,1.062,-,0.800,0.755,�k�k��,9.1,��
2018/11/15,13:20,0.778,1.177,0.821,1.464,1.061,-,0.801,0.757,�k�k��,8.1,��
2018/11/15,13:30,0.779,1.176,0.819,1.466,1.063,-,0.801,0.757,�k�k��,8.1,��
2018/11/15,13:40,0.779,1.175,0.821,1.465,1.063,-,0.802,0.757,�k�k��,7.9,��
2018/11/15,13:50,0.779,1.173,0.822,1.465,1.062,-,0.800,0.757,�k�k��,8.0,��
2018/11/15,14:00,0.779,1.175,0.822,1.465,1.062,-,0.800,0.757,�k�k��,8.3,��
2018/11/15,14:10,0.778,1.174,0.821,1.468,1.062,-,0.802,0.758,�k�k��,9.1,��
2018/11/15,14:20,0.777,1.174,0.821,1.463,1.062,-,0.802,0.757,�k�k��,8.1,��
2018/11/15,14:30,0.778,1.175,0.821,1.468,1.064,-,0.802,0.757,�k�k��,9.0,��
2018/11/15,14:40,0.780,1.176,0.821,1.463,1.064,-,0.803,0.757,�k�k��,8.8,��
2018/11/15,14:50,0.778,1.174,0.821,1.464,1.065,-,0.802,0.755,�k�k��,7.7,��
2018/11/15,15:00,0.777,1.175,0.821,1.464,1.063,-,0.802,0.757,�k�k��,8.0,��
2018/11/15,15:10,0.779,1.175,0.822,1.464,1.066,-,0.803,0.757,�k,8.4,��
2018/11/15,15:20,0.779,1.180,0.823,1.465,1.063,-,0.801,0.757,�k�k��,7.3,��
2018/11/15,15:30,0.778,1.180,0.822,1.464,1.062,0.456,0.801,0.758,�k�k��,7.7,��
2018/11/15,15:40,0.777,1.182,0.822,1.463,1.062,0.456,0.801,0.759,�k,6.3,��
2018/11/15,15:50,0.778,1.183,0.824,1.465,1.063,0.456,0.802,0.759,�k,7.1,��
2018/11/15,16:00,0.780,1.184,0.823,1.464,1.061,0.455,0.803,0.760,�k,7.0,��
2018/11/15,16:10,0.779,1.183,0.823,1.464,1.061,0.456,0.803,0.763,�k,6.6,��
2018/11/15,16:20,0.779,1.182,0.823,1.463,1.062,0.457,0.801,0.760,�k�k��,5.7,��
2018/11/15,16:30,0.778,1.183,0.823,1.465,1.065,0.455,0.801,0.760,�k,4.8,��
2018/11/15,16:40,0.780,1.182,0.824,1.465,1.063,0.456,0.801,0.760,�k,4.3,��
2018/11/15,16:50,0.779,1.185,0.822,1.465,1.066,0.455,0.799,0.758,�k�k��,4.6,��
2018/11/15,17:00,0.777,1.183,0.822,1.465,1.064,0.455,0.802,0.759,�k�k��,4.9,��
2018/11/15,17:10,0.776,1.184,0.822,1.464,1.065,0.454,0.801,0.759,�k�k��,3.7,��
2018/11/15,17:20,0.778,1.182,0.822,1.465,1.062,0.455,0.803,0.760,�k�k��,4.5,��
2018/11/15,17:30,0.779,1.182,0.822,1.462,1.064,0.454,0.804,0.759,�k�k��,4.1,��
2018/11/15,17:40,0.778,1.183,0.824,1.468,1.065,0.454,0.803,0.759,�k�k��,4.0,��
2018/11/15,17:50,0.779,1.183,0.823,1.468,1.065,0.454,0.802,0.757,�k�k��,3.8,��
2018/11/15,18:00,0.779,1.183,0.822,1.465,1.066,0.454,0.802,0.759,�k�k��,4.2,��
2018/11/15,18:10,0.779,1.184,0.822,1.462,1.066,0.454,0.802,0.759,�k�k��,4.6,��
2018/11/15,18:20,0.779,1.181,0.822,1.465,1.064,0.455,0.801,0.760,�k�k��,5.0,��
2018/11/15,18:30,0.780,1.180,0.822,1.464,1.065,0.455,0.801,0.758,�k�k��,5.2,��
2018/11/15,18:40,0.778,1.183,0.823,1.465,1.065,0.455,0.802,0.758,�k�k��,5.2,��
2018/11/15,18:50,0.777,1.182,0.822,1.466,1.064,0.455,0.801,0.758,�k�k��,5.5,��
2018/11/15,19:00,0.778,1.182,0.822,1.463,1.063,0.454,0.801,0.758,�k�k��,5.5,��
2018/11/15,19:10,0.777,1.182,0.820,1.463,1.065,0.453,0.801,0.760,�k�k��,5.5,��
2018/11/15,19:20,0.778,1.183,0.822,1.466,1.064,0.453,0.801,0.759,�k�k��,5.4,��
2018/11/15,19:30,0.779,1.186,0.822,1.465,1.065,0.454,0.802,0.758,�k�k��,5.4,��
2018/11/15,19:40,0.777,1.182,0.823,1.465,1.065,0.455,0.803,0.758,�k�k��,5.4,��
2018/11/15,19:50,0.778,1.181,0.824,1.467,1.064,0.453,0.799,0.759,�k�k��,6.0,��
2018/11/15,20:00,0.778,1.181,0.821,1.464,1.063,0.453,0.802,0.758,�k��,5.4,��
2018/11/15,20:10,0.777,1.182,0.823,1.466,1.063,0.454,0.802,0.758,�k��,6.0,��
2018/11/15,20:20,0.780,1.184,0.823,1.463,1.062,0.454,0.801,0.759,�k�k��,5.5,��
2018/11/15,20:30,0.777,1.182,0.820,1.463,1.064,0.453,0.800,0.758,�k�k��,5.2,��
2018/11/15,20:40,0.778,1.182,0.823,1.463,1.062,0.452,0.802,0.759,�k�k��,5.1,��
2018/11/15,20:50,0.778,1.180,0.822,1.464,1.064,0.453,0.801,0.758,�k��,5.4,��
2018/11/15,21:00,0.778,1.183,0.822,1.466,1.064,0.453,0.800,0.759,�k��,5.0,��
2018/11/15,21:10,0.777,1.181,0.820,1.465,1.063,0.453,0.802,0.759,�k��,5.1,��
2018/11/15,21:20,0.778,1.180,0.822,1.463,1.063,0.453,0.802,0.758,�k��,5.0,��
2018/11/15,21:30,0.777,1.182,0.821,1.462,1.064,0.455,0.802,0.758,�k��,5.1,��
2018/11/15,21:40,0.775,1.182,0.821,1.463,1.065,0.452,0.803,0.758,�k�k��,4.8,��
2018/11/15,21:50,0.776,1.181,0.820,1.465,1.063,0.453,0.800,0.758,�k�k��,4.7,��
2018/11/15,22:00,0.776,1.183,0.823,1.467,1.062,0.453,0.800,0.758,�k�k��,4.4,��
2018/11/15,22:10,0.777,1.183,0.821,1.462,1.062,0.453,0.799,0.757,�k��,4.9,��
2018/11/15,22:20,0.778,1.180,0.821,1.465,1.063,0.453,0.800,0.759,�k��,4.7,��
2018/11/15,22:30,0.776,1.183,0.822,1.464,1.061,0.453,0.799,0.759,�k��,5.1,��
2018/11/15,22:40,0.774,1.182,0.820,1.463,1.061,0.454,0.799,0.759,�k��,5.4,��
2018/11/15,22:50,0.776,1.181,0.822,1.467,1.063,0.453,0.799,0.758,�k�k��,5.6,��
2018/11/15,23:00,0.778,1.181,0.822,1.460,1.062,0.451,0.801,0.756,�k�k��,4.5,��
2018/11/15,23:10,0.777,1.180,0.821,1.461,1.064,0.454,0.800,0.757,�k��,4.9,��
2018/11/15,23:20,0.774,1.181,0.821,1.464,1.061,0.454,0.800,0.759,�k��,4.9,��
2018/11/15,23:30,0.778,1.181,0.821,1.462,1.063,0.454,0.802,0.755,�k��,4.2,��
2018/11/15,23:40,0.776,1.182,0.821,1.463,1.061,0.454,0.800,0.756,�k��,4.3,��
2018/11/15,23:50,0.776,1.182,0.822,1.460,1.061,0.453,0.800,0.758,�k��,4.0,��
